Location: Luxembourg
(49.6117°N, 6.1300°E)
Time: 02:08:26
(UTC+01:00)

CUBESAT XI-V - Visible Passes

Search period start: 20 March 2019 00:00
Search period end: 30 March 2019 00:00
Orbit: 670 x 692 km, 97.9° (Epoch: 18 March)

Date Brightness Start Highest point End Pass type
(mag) Time Alt. Az. Time Alt. Az. Time Alt. Az.
20 Mar ? 02:48:49 24° N 02:48:49 24° N 02:50:45 10° N visible
20 Mar ? 04:27:15 10° NW 04:27:15 10° NW 04:27:17 10° NW visible
21 Mar ? 01:46:52 17° NE 01:46:52 17° NE 01:48:45 10° NNE visible
21 Mar ? 03:25:18 23° NNW 03:25:18 23° NNW 03:27:04 10° NNW visible
22 Mar ? 02:23:21 25° NNE 02:23:21 25° NNE 02:25:41 10° N visible
22 Mar ? 04:01:47 17° NW 04:01:47 17° NW 04:03:01 10° NNW visible
23 Mar ? 01:21:23 12° NE 01:21:23 12° NE 01:22:52 10° NNE visible
23 Mar ? 02:59:50 30° N 02:59:50 30° N 03:02:13 10° N visible
24 Mar ? 01:57:53 21° NE 01:57:53 21° NE 02:00:26 10° N visible
24 Mar ? 03:36:18 25° NNW 03:36:18 25° NNW 03:38:25 10° NNW visible
25 Mar ? 02:34:21 32° NNE 02:34:21 32° NNE 02:37:13 10° N visible
25 Mar ? 04:12:47 17° NW 04:12:47 17° NW 04:14:12 10° NW visible
26 Mar ? 01:32:24 15° NE 01:32:24 15° NE 01:34:53 10° NNE visible
26 Mar ? 03:10:50 36° NNW 03:10:50 36° NNW 03:13:38 10° NNW visible
27 Mar ? 02:08:53 27° NE 02:08:53 27° NE 02:12:03 10° N visible
27 Mar ? 03:47:18 27° NW 03:47:18 27° NW 03:49:44 10° NNW visible
28 Mar ? 02:45:21 42° NNE 02:45:21 42° NNE 02:48:42 10° N visible
28 Mar ? 04:23:47 16° WNW 04:23:47 16° WNW 04:25:18 10° NW visible
29 Mar ? 01:43:24 19° ENE 01:43:27 19° ENE 01:46:40 10° NNE visible
29 Mar ? 03:21:50 42° NNW 03:21:50 42° NNW 03:25:02 10° NNW visible
